Regional Weather Roundup
Issued by NWS Bismarck, ND

Home | Current Version | Previous Version | Text Only | Print | Product List | Glossary On
Versions: 1 2 3 4 5 6 7 8 9 10 11 12 13 14 15 16 17 18 19 20 21 22 23 24 25 26 27 28 29 30 31 32 33 34 35 36 37 38 39 40 41 42 43 44 45 46 47 48 49 50
000
ASUS43 KBIS 251902
RWRBIS

NWR BROADCAST TEXT
NATIONAL WEATHER SERVICE BISMARCK ND
200 PM CDT THU AUG 25 2016

NOTE: "FAIR" INDICATES FEW OR NO CLOUDS BELOW 12,000 FEET WITH NO
SIGNIFICANT WEATHER AND/OR OBSTRUCTIONS TO VISIBILITY.


CITY           SKY/WX    TMP DP  RH WIND       PRES   REMARKS
WILLISTON      MOSUNNY   74  37  26 W12G18    30.15F
MINOT          MOSUNNY   72  45  37 W18G26    30.11F
MINOT AFB      MOSUNNY   71  45  38 NW16      30.09F
BISMARCK       CLOUDY    67  49  52 W10       30.17F
DICKINSON      CLOUDY    63  40  42 NW13G21   30.19F
GARRISON         N/A     68  44  42 NW10      30.14F
HETTINGER ARPT CLOUDY    65  44  46 N13G21    30.24F
JAMESTOWN      MOSUNNY   66  52  60 NW8       30.10F
HAZEN          CLOUDY    66  45  45 NW8       30.18F
OAKES            N/A    N/A N/A N/A MISG        N/A
STANLEY        FAIR      68  41  37 NW10      30.16F
$$

CITY           SKY/WX    TMP DP  RH WIND       PRES   REMARKS
GRAND FORKS    MOSUNNY   70  48  45 NW17G28   30.03R
GRAND FORKS AF MOSUNNY   68  48  48 N17       30.04R
DEVILS LAKE    PTSUNNY   67  49  52 W13       30.09S
FARGO          PTSUNNY   68  53  58 W14       30.06S
CAVALIER       FAIR      68  46  45 N12       30.03F
GRAFTON        MOCLDY    66  50  55 N14G20    30.05S
GWINNER        CLOUDY    61  55  82 W10       30.12R
LANGDON        CLOUDY    64  48  55 NW14      30.07S
ROLLA          FAIR      66  45  45 NW17G23   30.09S
$$

CITY           SKY/WX    TMP DP  RH WIND       PRES   REMARKS
ABERDEEN       CLOUDY    65  49  56 NW15      30.15R
MOBRIDGE       CLOUDY    64  47  53 NW14      30.17S
RAPID CITY     PTSUNNY   63  42  46 CALM      30.27F
GLASGOW        PTSUNNY   69  41  36 W16       30.18F
SIDNEY           N/A     70  41  34 NW10      30.17F
WOLF POINT     CLOUDY    71  42  35 NW13      30.18F
GLENDIVE       MOSUNNY   70  41  34 NW10G17   30.21F
MILES CITY     MOSUNNY   67  42  40 SW13G18   30.24F
BAKER          PTSUNNY   62  41  46 NW6       30.24F
$$

CITY           SKY/WX    TMP DP  RH WIND       PRES   REMARKS
BILLINGS       MOSUNNY   65  38  36 VRB5      30.25F
GREAT FALLS    CLOUDY    66  37  34 VRB6      30.23F
$$





USA.gov is the U.S. government's official web portal to all federal, state and local government web resources and services.